owner,sensor,date,latitude,longitude,sea_surface_height_above_sea_level,qcFlag 
TCOON,ioos:station:TCOON:031:1,2017-03-01T00:18:00Z,28.4073,-96.7122,0.649,1111122 
TCOON,ioos:station:TCOON:031:1,2017-03-01T01:18:00Z,28.4073,-96.7122,0.672,1111122 
TCOON,ioos:station:TCOON:031:1,2017-03-01T02:18:00Z,28.4073,-96.7122,0.687,1111122 
TCOON,ioos:station:TCOON:031:1,2017-03-01T03:18:00Z,28.4073,-96.7122,0.679,1111122 
TCOON,ioos:station:TCOON:031:1,2017-03-01T04:18:00Z,28.4073,-96.7122,0.643,1111122 
TCOON,ioos:station:TCOON:031:1,2017-03-01T05:18:00Z,28.4073,-96.7122,0.615,1111122 
TCOON,ioos:station:TCOON:031:1,2017-03-01T06:18:00Z,28.4073,-96.7122,0.645,1111122 
TCOON,ioos:station:TCOON:031:1,2017-03-01T07:18:00Z,28.4073,-96.7122,0.643,1111122 
TCOON,ioos:station:TCOON:031:1,2017-03-01T08:18:00Z,28.4073,-96.7122,0.624,1111122 
TCOON,ioos:station:TCOON:031:1,2017-03-01T09:18:00Z,28.4073,-96.7122,0.615,1111122 
TCOON,ioos:station:TCOON:031:1,2017-03-01T10:18:00Z,28.4073,-96.7122,0.643,1111122 
TCOON,ioos:station:TCOON:031:1,2017-03-01T11:18:00Z,28.4073,-96.7122,0.666,1111122 
TCOON,ioos:station:TCOON:031:1,2017-03-01T12:18:00Z,28.4073,-96.7122,0.665,1111122 
TCOON,ioos:station:TCOON:031:1,2017-03-01T13:18:00Z,28.4073,-96.7122,0.629,1111122 
TCOON,ioos:station:TCOON:031:1,2017-03-01T14:18:00Z,28.4073,-96.7122,0.541,1111122 
TCOON,ioos:station:TCOON:031:1,2017-03-01T15:18:00Z,28.4073,-96.7122,0.569,1111122 
TCOON,ioos:station:TCOON:031:1,2017-03-01T16:18:00Z,28.4073,-96.7122,0.592,1111122 
TCOON,ioos:station:TCOON:031:1,2017-03-01T17:18:00Z,28.4073,-96.7122,0.619,1111122 
TCOON,ioos:station:TCOON:031:1,2017-03-01T18:18:00Z,28.4073,-96.7122,0.587,1111122 
TCOON,ioos:station:TCOON:031:1,2017-03-01T19:18:00Z,28.4073,-96.7122,0.577,1111122 
TCOON,ioos:station:TCOON:031:1,2017-03-01T20:18:00Z,28.4073,-96.7122,0.55,1111122 
TCOON,ioos:station:TCOON:031:1,2017-03-01T21:18:00Z,28.4073,-96.7122,0.539,1111122 
TCOON,ioos:station:TCOON:031:1,2017-03-01T22:18:00Z,28.4073,-96.7122,0.431,1111122 
TCOON,ioos:station:TCOON:031:1,2017-03-02T00:18:00Z,28.4073,-96.7122,0.506,1111122 
TCOON,ioos:station:TCOON:031:1,2017-03-02T01:18:00Z,28.4073,-96.7122,0.512,1111122 
TCOON,ioos:station:TCOON:031:1,2017-03-02T02:18:00Z,28.4073,-96.7122,0.502,1111122 
TCOON,ioos:station:TCOON:031:1,2017-03-02T03:18:00Z,28.4073,-96.7122,0.455,1111122 
TCOON,ioos:station:TCOON:031:1,2017-03-02T04:18:00Z,28.4073,-96.7122,0.443,1111122 
TCOON,ioos:station:TCOON:031:1,2017-03-02T05:18:00Z,28.4073,-96.7122,0.437,1111122 
TCOON,ioos:station:TCOON:031:1,2017-03-02T06:18:00Z,28.4073,-96.7122,0.448,1111122 
TCOON,ioos:station:TCOON:031:1,2017-03-02T07:18:00Z,28.4073,-96.7122,0.461,1111122 
TCOON,ioos:station:TCOON:031:1,2017-03-02T08:18:00Z,28.4073,-96.7122,0.452,1111122 
TCOON,ioos:station:TCOON:031:1,2017-03-02T09:18:00Z,28.4073,-96.7122,0.453,1111122 
TCOON,ioos:station:TCOON:031:1,2017-03-02T10:18:00Z,28.4073,-96.7122,0.45,1111122 
TCOON,ioos:station:TCOON:031:1,2017-03-02T11:18:00Z,28.4073,-96.7122,0.44,1111122 
TCOON,ioos:station:TCOON:031:1,2017-03-02T12:18:00Z,28.4073,-96.7122,0.439,1111122 
TCOON,ioos:station:TCOON:031:1,2017-03-02T13:18:00Z,28.4073,-96.7122,0.427,1111122 
TCOON,ioos:station:TCOON:031:1,2017-03-02T14:18:00Z,28.4073,-96.7122,0.408,1111122 
TCOON,ioos:station:TCOON:031:1,2017-03-02T15:18:00Z,28.4073,-96.7122,0.411,1111122 
TCOON,ioos:station:TCOON:031:1,2017-03-02T16:18:00Z,28.4073,-96.7122,0.446,1111122 
TCOON,ioos:station:TCOON:031:1,2017-03-02T17:18:00Z,28.4073,-96.7122,0.46,1111122 
TCOON,ioos:station:TCOON:031:1,2017-03-02T18:18:00Z,28.4073,-96.7122,0.501,1111122 
TCOON,ioos:station:TCOON:031:1,2017-03-02T19:18:00Z,28.4073,-96.7122,0.516,1111122 
TCOON,ioos:station:TCOON:031:1,2017-03-02T20:18:00Z,28.4073,-96.7122,0.536,1111122 
TCOON,ioos:station:TCOON:031:1,2017-03-02T21:18:00Z,28.4073,-96.7122,0.55,1111122 
TCOON,ioos:station:TCOON:031:1,2017-03-02T22:18:00Z,28.4073,-96.7122,0.55,1111122 
TCOON,ioos:station:TCOON:031:1,2017-03-02T23:18:00Z,28.4073,-96.7122,0.556,1111122 
TCOON,ioos:station:TCOON:031:1,2017-03-03T00:18:00Z,28.4073,-96.7122,0.57,1111122 
TCOON,ioos:station:TCOON:031:1,2017-03-03T01:18:00Z,28.4073,-96.7122,0.575,1111122 
TCOON,ioos:station:TCOON:031:1,2017-03-03T02:18:00Z,28.4073,-96.7122,0.575,1111122 
TCOON,ioos:station:TCOON:031:1,2017-03-03T03:18:00Z,28.4073,-96.7122,0.58,1111122 
TCOON,ioos:station:TCOON:031:1,2017-03-03T04:18:00Z,28.4073,-96.7122,0.568,1111122 
TCOON,ioos:station:TCOON:031:1,2017-03-03T05:18:00Z,28.4073,-96.7122,0.576,1111122 
TCOON,ioos:station:TCOON:031:1,2017-03-03T06:24:00Z,28.4073,-96.7122,0.57,1111122 
TCOON,ioos:station:TCOON:031:1,2017-03-03T07:18:00Z,28.4073,-96.7122,0.556,1111122 
TCOON,ioos:station:TCOON:031:1,2017-03-03T08:18:00Z,28.4073,-96.7122,0.544,1111122 
TCOON,ioos:station:TCOON:031:1,2017-03-03T09:18:00Z,28.4073,-96.7122,0.535,1111122 
TCOON,ioos:station:TCOON:031:1,2017-03-03T10:18:00Z,28.4073,-96.7122,0.521,1111122 
TCOON,ioos:station:TCOON:031:1,2017-03-03T11:18:00Z,28.4073,-96.7122,0.525,1111122 
TCOON,ioos:station:TCOON:031:1,2017-03-03T12:18:00Z,28.4073,-96.7122,0.523,1111122 
TCOON,ioos:station:TCOON:031:1,2017-03-03T13:18:00Z,28.4073,-96.7122,0.541,1111122 
TCOON,ioos:station:TCOON:031:1,2017-03-03T14:18:00Z,28.4073,-96.7122,0.537,1111122 
TCOON,ioos:station:TCOON:031:1,2017-03-03T15:18:00Z,28.4073,-96.7122,0.54,1111122 
TCOON,ioos:station:TCOON:031:1,2017-03-03T16:18:00Z,28.4073,-96.7122,0.563,1111122 
TCOON,ioos:station:TCOON:031:1,2017-03-03T17:18:00Z,28.4073,-96.7122,0.559,1111122 
TCOON,ioos:station:TCOON:031:1,2017-03-03T18:18:00Z,28.4073,-96.7122,0.581,1111122 
TCOON,ioos:station:TCOON:031:1,2017-03-03T19:18:00Z,28.4073,-96.7122,0.591,1111122 
TCOON,ioos:station:TCOON:031:1,2017-03-03T20:18:00Z,28.4073,-96.7122,0.585,1111122 
TCOON,ioos:station:TCOON:031:1,2017-03-03T21:18:00Z,28.4073,-96.7122,0.585,1111122 
TCOON,ioos:station:TCOON:031:1,2017-03-03T22:18:00Z,28.4073,-96.7122,0.604,1111122 
TCOON,ioos:station:TCOON:031:1,2017-03-04T00:18:00Z,28.4073,-96.7122,0.639,1111122 
TCOON,ioos:station:TCOON:031:1,2017-03-04T01:18:00Z,28.4073,-96.7122,0.627,1111122 
TCOON,ioos:station:TCOON:031:1,2017-03-04T02:18:00Z,28.4073,-96.7122,0.626,1111122 
TCOON,ioos:station:TCOON:031:1,2017-03-04T03:18:00Z,28.4073,-96.7122,0.648,1111122 
TCOON,ioos:station:TCOON:031:1,2017-03-04T04:18:00Z,28.4073,-96.7122,0.648,1111122 
TCOON,ioos:station:TCOON:031:1,2017-03-04T05:18:00Z,28.4073,-96.7122,0.639,1111122 
TCOON,ioos:station:TCOON:031:1,2017-03-04T06:18:00Z,28.4073,-96.7122,0.662,1111122 
TCOON,ioos:station:TCOON:031:1,2017-03-04T07:18:00Z,28.4073,-96.7122,0.67,1111122 
TCOON,ioos:station:TCOON:031:1,2017-03-04T08:18:00Z,28.4073,-96.7122,0.664,1111122 
TCOON,ioos:station:TCOON:031:1,2017-03-04T09:18:00Z,28.4073,-96.7122,0.667,1111122 
TCOON,ioos:station:TCOON:031:1,2017-03-04T10:18:00Z,28.4073,-96.7122,0.67,1111122 
TCOON,ioos:station:TCOON:031:1,2017-03-04T11:18:00Z,28.4073,-96.7122,0.671,1111122 
TCOON,ioos:station:TCOON:031:1,2017-03-04T12:18:00Z,28.4073,-96.7122,0.649,1111122 
TCOON,ioos:station:TCOON:031:1,2017-03-04T13:18:00Z,28.4073,-96.7122,0.654,1111122 
TCOON,ioos:station:TCOON:031:1,2017-03-04T14:18:00Z,28.4073,-96.7122,0.649,1111122 
TCOON,ioos:station:TCOON:031:1,2017-03-04T15:18:00Z,28.4073,-96.7122,0.655,1111122 
TCOON,ioos:station:TCOON:031:1,2017-03-04T16:18:00Z,28.4073,-96.7122,0.654,1111122 
TCOON,ioos:station:TCOON:031:1,2017-03-04T17:18:00Z,28.4073,-96.7122,0.682,1111122 
TCOON,ioos:station:TCOON:031:1,2017-03-04T18:18:00Z,28.4073,-96.7122,0.68,1111122 
TCOON,ioos:station:TCOON:031:1,2017-03-04T19:18:00Z,28.4073,-96.7122,0.69,1111122 
TCOON,ioos:station:TCOON:031:1,2017-03-04T20:18:00Z,28.4073,-96.7122,0.66,1111122 
TCOON,ioos:station:TCOON:031:1,2017-03-04T21:18:00Z,28.4073,-96.7122,0.704,1111122 
TCOON,ioos:station:TCOON:031:1,2017-03-04T22:18:00Z,28.4073,-96.7122,0.694,1111122 
TCOON,ioos:station:TCOON:031:1,2017-03-04T23:18:00Z,28.4073,-96.7122,0.693,1111122 
TCOON,ioos:station:TCOON:031:1,2017-03-05T00:18:00Z,28.4073,-96.7122,0.666,1111122 
TCOON,ioos:station:TCOON:031:1,2017-03-05T01:18:00Z,28.4073,-96.7122,0.721,1111122 
TCOON,ioos:station:TCOON:031:1,2017-03-05T02:18:00Z,28.4073,-96.7122,0.717,1111122 
TCOON,ioos:station:TCOON:031:1,2017-03-05T03:18:00Z,28.4073,-96.7122,0.722,1111122 
TCOON,ioos:station:TCOON:031:1,2017-03-05T04:18:00Z,28.4073,-96.7122,0.704,1111122 
TCOON,ioos:station:TCOON:031:1,2017-03-05T05:18:00Z,28.4073,-96.7122,0.76,1111122 
TCOON,ioos:station:TCOON:031:1,2017-03-05T06:24:00Z,28.4073,-96.7122,0.786,1111122 
TCOON,ioos:station:TCOON:031:1,2017-03-05T07:18:00Z,28.4073,-96.7122,0.757,1111122 
TCOON,ioos:station:TCOON:031:1,2017-03-05T08:18:00Z,28.4073,-96.7122,0.748,1111122 
TCOON,ioos:station:TCOON:031:1,2017-03-05T09:18:00Z,28.4073,-96.7122,0.743,1111122 
TCOON,ioos:station:TCOON:031:1,2017-03-05T10:18:00Z,28.4073,-96.7122,0.726,1111122 
TCOON,ioos:station:TCOON:031:1,2017-03-05T11:18:00Z,28.4073,-96.7122,0.73,1111122 
TCOON,ioos:station:TCOON:031:1,2017-03-05T12:18:00Z,28.4073,-96.7122,0.721,1111122 
TCOON,ioos:station:TCOON:031:1,2017-03-05T13:18:00Z,28.4073,-96.7122,0.698,1111122 
TCOON,ioos:station:TCOON:031:1,2017-03-05T14:18:00Z,28.4073,-96.7122,0.671,1111122 
TCOON,ioos:station:TCOON:031:1,2017-03-05T15:18:00Z,28.4073,-96.7122,0.672,1111122 
TCOON,ioos:station:TCOON:031:1,2017-03-05T16:18:00Z,28.4073,-96.7122,0.663,1111122 
TCOON,ioos:station:TCOON:031:1,2017-03-05T17:18:00Z,28.4073,-96.7122,0.667,1111122 
TCOON,ioos:station:TCOON:031:1,2017-03-05T18:18:00Z,28.4073,-96.7122,0.672,1111122 
TCOON,ioos:station:TCOON:031:1,2017-03-05T19:18:00Z,28.4073,-96.7122,0.698,1111122 
TCOON,ioos:station:TCOON:031:1,2017-03-05T20:18:00Z,28.4073,-96.7122,0.708,1111122 
TCOON,ioos:station:TCOON:031:1,2017-03-05T21:18:00Z,28.4073,-96.7122,0.706,1111122 
TCOON,ioos:station:TCOON:031:1,2017-03-05T22:18:00Z,28.4073,-96.7122,0.717,1111122 
TCOON,ioos:station:TCOON:031:1,2017-03-05T23:18:00Z,28.4073,-96.7122,0.735,1111122 
TCOON,ioos:station:TCOON:031:1,2017-03-06T00:18:00Z,28.4073,-96.7122,0.753,1111122 
TCOON,ioos:station:TCOON:031:1,2017-03-06T01:18:00Z,28.4073,-96.7122,0.759,1111122 
TCOON,ioos:station:TCOON:031:1,2017-03-06T02:18:00Z,28.4073,-96.7122,0.782,1111122 
TCOON,ioos:station:TCOON:031:1,2017-03-06T03:18:00Z,28.4073,-96.7122,0.783,1111122 
TCOON,ioos:station:TCOON:031:1,2017-03-06T04:18:00Z,28.4073,-96.7122,0.795,1111122 
TCOON,ioos:station:TCOON:031:1,2017-03-06T05:18:00Z,28.4073,-96.7122,0.788,1111122 
TCOON,ioos:station:TCOON:031:1,2017-03-06T06:18:00Z,28.4073,-96.7122,0.791,1111122 
TCOON,ioos:station:TCOON:031:1,2017-03-06T07:18:00Z,28.4073,-96.7122,0.774,1111122 
TCOON,ioos:station:TCOON:031:1,2017-03-06T08:18:00Z,28.4073,-96.7122,0.77,1111122 
TCOON,ioos:station:TCOON:031:1,2017-03-06T09:18:00Z,28.4073,-96.7122,0.762,1111122 
TCOON,ioos:station:TCOON:031:1,2017-03-06T10:18:00Z,28.4073,-96.7122,0.758,1111122 
TCOON,ioos:station:TCOON:031:1,2017-03-06T11:18:00Z,28.4073,-96.7122,0.745,1111122 
TCOON,ioos:station:TCOON:031:1,2017-03-06T12:18:00Z,28.4073,-96.7122,0.738,1111122 
TCOON,ioos:station:TCOON:031:1,2017-03-06T13:18:00Z,28.4073,-96.7122,0.725,1111122 
TCOON,ioos:station:TCOON:031:1,2017-03-06T14:18:00Z,28.4073,-96.7122,0.706,1111122 
TCOON,ioos:station:TCOON:031:1,2017-03-06T15:18:00Z,28.4073,-96.7122,0.701,1111122 
TCOON,ioos:station:TCOON:031:1,2017-03-06T16:18:00Z,28.4073,-96.7122,0.715,1111122 
TCOON,ioos:station:TCOON:031:1,2017-03-06T17:18:00Z,28.4073,-96.7122,0.731,1111122 
TCOON,ioos:station:TCOON:031:1,2017-03-06T18:18:00Z,28.4073,-96.7122,0.757,1111122 
TCOON,ioos:station:TCOON:031:1,2017-03-06T19:18:00Z,28.4073,-96.7122,0.738,1111122 
TCOON,ioos:station:TCOON:031:1,2017-03-06T20:18:00Z,28.4073,-96.7122,0.713,1111122 
TCOON,ioos:station:TCOON:031:1,2017-03-06T21:18:00Z,28.4073,-96.7122,0.709,1111122 
TCOON,ioos:station:TCOON:031:1,2017-03-06T22:18:00Z,28.4073,-96.7122,0.714,1111122 
TCOON,ioos:station:TCOON:031:1,2017-03-06T23:18:00Z,28.4073,-96.7122,0.716,1111122 
TCOON,ioos:station:TCOON:031:1,2017-03-07T00:18:00Z,28.4073,-96.7122,0.73,1111122 
TCOON,ioos:station:TCOON:031:1,2017-03-07T01:18:00Z,28.4073,-96.7122,0.738,1111122 
TCOON,ioos:station:TCOON:031:1,2017-03-07T02:18:00Z,28.4073,-96.7122,0.75,1111122 
TCOON,ioos:station:TCOON:031:1,2017-03-07T03:18:00Z,28.4073,-96.7122,0.757,1111122 
TCOON,ioos:station:TCOON:031:1,2017-03-07T04:18:00Z,28.4073,-96.7122,0.764,1111122 
TCOON,ioos:station:TCOON:031:1,2017-03-07T05:18:00Z,28.4073,-96.7122,0.748,1111122 
TCOON,ioos:station:TCOON:031:1,2017-03-07T06:18:00Z,28.4073,-96.7122,0.759,1111122 
TCOON,ioos:station:TCOON:031:1,2017-03-07T07:18:00Z,28.4073,-96.7122,0.776,1111122 
TCOON,ioos:station:TCOON:031:1,2017-03-07T08:18:00Z,28.4073,-96.7122,0.768,1111122 
TCOON,ioos:station:TCOON:031:1,2017-03-07T09:18:00Z,28.4073,-96.7122,0.762,1111122 
TCOON,ioos:station:TCOON:031:1,2017-03-07T10:18:00Z,28.4073,-96.7122,0.752,1111122 
TCOON,ioos:station:TCOON:031:1,2017-03-07T11:18:00Z,28.4073,-96.7122,0.737,1111122 
TCOON,ioos:station:TCOON:031:1,2017-03-07T12:18:00Z,28.4073,-96.7122,0.712,1111122 
TCOON,ioos:station:TCOON:031:1,2017-03-07T13:18:00Z,28.4073,-96.7122,0.707,1111122 
TCOON,ioos:station:TCOON:031:1,2017-03-07T14:18:00Z,28.4073,-96.7122,0.707,1111122 
TCOON,ioos:station:TCOON:031:1,2017-03-07T15:18:00Z,28.4073,-96.7122,0.707,1111122 
TCOON,ioos:station:TCOON:031:1,2017-03-07T16:18:00Z,28.4073,-96.7122,0.693,1111122 
TCOON,ioos:station:TCOON:031:1,2017-03-07T17:18:00Z,28.4073,-96.7122,0.703,1111122 
TCOON,ioos:station:TCOON:031:1,2017-03-07T18:24:00Z,28.4073,-96.7122,0.676,1111122 
TCOON,ioos:station:TCOON:031:1,2017-03-07T19:24:00Z,28.4073,-96.7122,0.661,1111122 
TCOON,ioos:station:TCOON:031:1,2017-03-07T20:18:00Z,28.4073,-96.7122,0.653,1111122 
TCOON,ioos:station:TCOON:031:1,2017-03-07T21:18:00Z,28.4073,-96.7122,0.695,1111122 
TCOON,ioos:station:TCOON:031:1,2017-03-07T22:18:00Z,28.4073,-96.7122,0.683,1111122 
TCOON,ioos:station:TCOON:031:1,2017-03-08T00:18:00Z,28.4073,-96.7122,0.666,1111122 
TCOON,ioos:station:TCOON:031:1,2017-03-08T01:18:00Z,28.4073,-96.7122,0.666,1111122 
TCOON,ioos:station:TCOON:031:1,2017-03-08T02:18:00Z,28.4073,-96.7122,0.6,1111122 
TCOON,ioos:station:TCOON:031:1,2017-03-08T03:18:00Z,28.4073,-96.7122,0.602,1111122 
TCOON,ioos:station:TCOON:031:1,2017-03-08T04:18:00Z,28.4073,-96.7122,0.605,1111122 
TCOON,ioos:station:TCOON:031:1,2017-03-08T05:18:00Z,28.4073,-96.7122,0.639,1111122 
TCOON,ioos:station:TCOON:031:1,2017-03-08T06:18:00Z,28.4073,-96.7122,0.664,1111122 
TCOON,ioos:station:TCOON:031:1,2017-03-08T07:18:00Z,28.4073,-96.7122,0.675,1111122 
TCOON,ioos:station:TCOON:031:1,2017-03-08T08:18:00Z,28.4073,-96.7122,0.684,1111122 
TCOON,ioos:station:TCOON:031:1,2017-03-08T09:18:00Z,28.4073,-96.7122,0.706,1111122 
TCOON,ioos:station:TCOON:031:1,2017-03-08T10:18:00Z,28.4073,-96.7122,0.695,1111122 
TCOON,ioos:station:TCOON:031:1,2017-03-08T11:18:00Z,28.4073,-96.7122,0.692,1111122 
TCOON,ioos:station:TCOON:031:1,2017-03-08T12:18:00Z,28.4073,-96.7122,0.708,1111122 
TCOON,ioos:station:TCOON:031:1,2017-03-08T13:18:00Z,28.4073,-96.7122,0.699,1111122 
TCOON,ioos:station:TCOON:031:1,2017-03-08T14:18:00Z,28.4073,-96.7122,0.691,1111122 
TCOON,ioos:station:TCOON:031:1,2017-03-08T15:18:00Z,28.4073,-96.7122,0.671,1111122 
TCOON,ioos:station:TCOON:031:1,2017-03-08T16:18:00Z,28.4073,-96.7122,0.686,1111122 
TCOON,ioos:station:TCOON:031:1,2017-03-08T17:18:00Z,28.4073,-96.7122,0.672,1111122 
TCOON,ioos:station:TCOON:031:1,2017-03-08T18:18:00Z,28.4073,-96.7122,0.664,1111122 
TCOON,ioos:station:TCOON:031:1,2017-03-08T19:18:00Z,28.4073,-96.7122,0.668,1111122 
TCOON,ioos:station:TCOON:031:1,2017-03-08T20:18:00Z,28.4073,-96.7122,0.651,1111122 
TCOON,ioos:station:TCOON:031:1,2017-03-08T21:18:00Z,28.4073,-96.7122,0.646,1111122 
TCOON,ioos:station:TCOON:031:1,2017-03-08T22:18:00Z,28.4073,-96.7122,0.649,1111122 
TCOON,ioos:station:TCOON:031:1,2017-03-08T23:18:00Z,28.4073,-96.7122,0.671,1111122 
TCOON,ioos:station:TCOON:031:1,2017-03-09T00:18:00Z,28.4073,-96.7122,0.685,1111122 
TCOON,ioos:station:TCOON:031:1,2017-03-09T01:18:00Z,28.4073,-96.7122,0.658,1111122 
TCOON,ioos:station:TCOON:031:1,2017-03-09T02:18:00Z,28.4073,-96.7122,0.658,1111122 
TCOON,ioos:station:TCOON:031:1,2017-03-09T03:18:00Z,28.4073,-96.7122,0.663,1111122 
TCOON,ioos:station:TCOON:031:1,2017-03-09T04:18:00Z,28.4073,-96.7122,0.688,1111122 
TCOON,ioos:station:TCOON:031:1,2017-03-09T05:18:00Z,28.4073,-96.7122,0.69,1111122 
TCOON,ioos:station:TCOON:031:1,2017-03-09T06:18:00Z,28.4073,-96.7122,0.682,1111122 
TCOON,ioos:station:TCOON:031:1,2017-03-09T07:18:00Z,28.4073,-96.7122,0.684,1111122 
TCOON,ioos:station:TCOON:031:1,2017-03-09T08:18:00Z,28.4073,-96.7122,0.693,1111122 
TCOON,ioos:station:TCOON:031:1,2017-03-09T09:18:00Z,28.4073,-96.7122,0.694,1111122 
TCOON,ioos:station:TCOON:031:1,2017-03-09T10:18:00Z,28.4073,-96.7122,0.693,1111122 
TCOON,ioos:station:TCOON:031:1,2017-03-09T11:18:00Z,28.4073,-96.7122,0.685,1111122 
TCOON,ioos:station:TCOON:031:1,2017-03-09T12:18:00Z,28.4073,-96.7122,0.684,1111122 
TCOON,ioos:station:TCOON:031:1,2017-03-09T13:18:00Z,28.4073,-96.7122,0.674,1111122 
TCOON,ioos:station:TCOON:031:1,2017-03-09T14:18:00Z,28.4073,-96.7122,0.658,1111122 
TCOON,ioos:station:TCOON:031:1,2017-03-09T15:18:00Z,28.4073,-96.7122,0.663,1111122 
TCOON,ioos:station:TCOON:031:1,2017-03-09T16:18:00Z,28.4073,-96.7122,0.653,1111122 
TCOON,ioos:station:TCOON:031:1,2017-03-09T17:18:00Z,28.4073,-96.7122,0.659,1111122 
TCOON,ioos:station:TCOON:031:1,2017-03-09T18:18:00Z,28.4073,-96.7122,0.652,1111122 
TCOON,ioos:station:TCOON:031:1,2017-03-09T19:18:00Z,28.4073,-96.7122,0.653,1111122 
TCOON,ioos:station:TCOON:031:1,2017-03-09T20:18:00Z,28.4073,-96.7122,0.653,1111122 
TCOON,ioos:station:TCOON:031:1,2017-03-09T21:18:00Z,28.4073,-96.7122,0.641,1111122 
TCOON,ioos:station:TCOON:031:1,2017-03-09T22:18:00Z,28.4073,-96.7122,0.651,1111122 
TCOON,ioos:station:TCOON:031:1,2017-03-09T23:18:00Z,28.4073,-96.7122,0.638,1111122 
TCOON,ioos:station:TCOON:031:1,2017-03-10T00:18:00Z,28.4073,-96.7122,0.618,1111122 
TCOON,ioos:station:TCOON:031:1,2017-03-10T01:18:00Z,28.4073,-96.7122,0.61,1111122 
TCOON,ioos:station:TCOON:031:1,2017-03-10T02:18:00Z,28.4073,-96.7122,0.609,1111122 
TCOON,ioos:station:TCOON:031:1,2017-03-10T03:18:00Z,28.4073,-96.7122,0.623,1111122 
TCOON,ioos:station:TCOON:031:1,2017-03-10T04:24:00Z,28.4073,-96.7122,0.635,1111122 
TCOON,ioos:station:TCOON:031:1,2017-03-10T05:18:00Z,28.4073,-96.7122,0.642,1111122 
TCOON,ioos:station:TCOON:031:1,2017-03-10T07:00:00Z,28.4073,-96.7122,0.675,1111122 
TCOON,ioos:station:TCOON:031:1,2017-03-10T07:18:00Z,28.4073,-96.7122,0.681,1111122 
TCOON,ioos:station:TCOON:031:1,2017-03-10T08:18:00Z,28.4073,-96.7122,0.663,1111122 
TCOON,ioos:station:TCOON:031:1,2017-03-10T09:18:00Z,28.4073,-96.7122,0.658,1111122 
TCOON,ioos:station:TCOON:031:1,2017-03-10T10:18:00Z,28.4073,-96.7122,0.649,1111122 
TCOON,ioos:station:TCOON:031:1,2017-03-10T11:18:00Z,28.4073,-96.7122,0.648,1111122 
TCOON,ioos:station:TCOON:031:1,2017-03-10T12:18:00Z,28.4073,-96.7122,0.633,1111122 
TCOON,ioos:station:TCOON:031:1,2017-03-10T13:18:00Z,28.4073,-96.7122,0.617,1111122 
TCOON,ioos:station:TCOON:031:1,2017-03-10T14:18:00Z,28.4073,-96.7122,0.605,1111122 
TCOON,ioos:station:TCOON:031:1,2017-03-10T15:18:00Z,28.4073,-96.7122,0.589,1111122 
TCOON,ioos:station:TCOON:031:1,2017-03-10T16:18:00Z,28.4073,-96.7122,0.58,1111122 
TCOON,ioos:station:TCOON:031:1,2017-03-10T17:18:00Z,28.4073,-96.7122,0.568,1111122 
TCOON,ioos:station:TCOON:031:1,2017-03-10T18:18:00Z,28.4073,-96.7122,0.635,1111122 
TCOON,ioos:station:TCOON:031:1,2017-03-10T19:18:00Z,28.4073,-96.7122,0.607,1111122 
TCOON,ioos:station:TCOON:031:1,2017-03-10T20:18:00Z,28.4073,-96.7122,0.564,1111122 
TCOON,ioos:station:TCOON:031:1,2017-03-10T21:18:00Z,28.4073,-96.7122,0.614,1111122 
TCOON,ioos:station:TCOON:031:1,2017-03-10T22:18:00Z,28.4073,-96.7122,0.566,1111122 
TCOON,ioos:station:TCOON:031:1,2017-03-10T23:18:00Z,28.4073,-96.7122,0.592,1111122 
TCOON,ioos:station:TCOON:031:1,2017-03-11T00:18:00Z,28.4073,-96.7122,0.626,1111122 
TCOON,ioos:station:TCOON:031:1,2017-03-11T01:18:00Z,28.4073,-96.7122,0.609,1111122 
TCOON,ioos:station:TCOON:031:1,2017-03-11T02:18:00Z,28.4073,-96.7122,0.595,1111122 
TCOON,ioos:station:TCOON:031:1,2017-03-11T04:06:00Z,28.4073,-96.7122,0.595,1111122 
TCOON,ioos:station:TCOON:031:1,2017-03-11T05:18:00Z,28.4073,-96.7122,0.649,1111122 
TCOON,ioos:station:TCOON:031:1,2017-03-11T06:24:00Z,28.4073,-96.7122,0.653,1111122 
TCOON,ioos:station:TCOON:031:1,2017-03-11T07:18:00Z,28.4073,-96.7122,0.588,1111122 
TCOON,ioos:station:TCOON:031:1,2017-03-11T08:18:00Z,28.4073,-96.7122,0.574,1111122 
TCOON,ioos:station:TCOON:031:1,2017-03-11T09:18:00Z,28.4073,-96.7122,0.576,1111122 
TCOON,ioos:station:TCOON:031:1,2017-03-11T10:18:00Z,28.4073,-96.7122,0.53,1111122 
TCOON,ioos:station:TCOON:031:1,2017-03-11T11:18:00Z,28.4073,-96.7122,0.573,1111122 
TCOON,ioos:station:TCOON:031:1,2017-03-11T12:18:00Z,28.4073,-96.7122,0.564,1111122 
TCOON,ioos:station:TCOON:031:1,2017-03-11T13:18:00Z,28.4073,-96.7122,0.557,1111122 
TCOON,ioos:station:TCOON:031:1,2017-03-11T14:18:00Z,28.4073,-96.7122,0.542,1111122 
TCOON,ioos:station:TCOON:031:1,2017-03-11T15:18:00Z,28.4073,-96.7122,0.577,1111122 
TCOON,ioos:station:TCOON:031:1,2017-03-11T16:18:00Z,28.4073,-96.7122,0.596,1111122 
TCOON,ioos:station:TCOON:031:1,2017-03-11T17:18:00Z,28.4073,-96.7122,0.58,1111122 
TCOON,ioos:station:TCOON:031:1,2017-03-11T18:18:00Z,28.4073,-96.7122,0.613,1111122 
TCOON,ioos:station:TCOON:031:1,2017-03-11T19:18:00Z,28.4073,-96.7122,0.603,1111122 
TCOON,ioos:station:TCOON:031:1,2017-03-11T20:18:00Z,28.4073,-96.7122,0.587,1111122 
TCOON,ioos:station:TCOON:031:1,2017-03-11T21:18:00Z,28.4073,-96.7122,0.611,1111122 
TCOON,ioos:station:TCOON:031:1,2017-03-11T22:18:00Z,28.4073,-96.7122,0.607,1111122 
TCOON,ioos:station:TCOON:031:1,2017-03-11T23:18:00Z,28.4073,-96.7122,0.599,1111122 
TCOON,ioos:station:TCOON:031:1,2017-03-12T00:18:00Z,28.4073,-96.7122,0.63,1111122 
TCOON,ioos:station:TCOON:031:1,2017-03-12T01:18:00Z,28.4073,-96.7122,0.607,1111122 
TCOON,ioos:station:TCOON:031:1,2017-03-12T02:18:00Z,28.4073,-96.7122,0.598,1111122 
TCOON,ioos:station:TCOON:031:1,2017-03-12T03:18:00Z,28.4073,-96.7122,0.582,1111122 
TCOON,ioos:station:TCOON:031:1,2017-03-12T04:18:00Z,28.4073,-96.7122,0.592,1111122 
TCOON,ioos:station:TCOON:031:1,2017-03-12T05:18:00Z,28.4073,-96.7122,0.577,1111122 
TCOON,ioos:station:TCOON:031:1,2017-03-12T06:18:00Z,28.4073,-96.7122,0.565,1111122 
TCOON,ioos:station:TCOON:031:1,2017-03-12T07:18:00Z,28.4073,-96.7122,0.58,1111122 
TCOON,ioos:station:TCOON:031:1,2017-03-12T08:18:00Z,28.4073,-96.7122,0.562,1111122 
TCOON,ioos:station:TCOON:031:1,2017-03-12T09:18:00Z,28.4073,-96.7122,0.539,1111122 
TCOON,ioos:station:TCOON:031:1,2017-03-12T10:18:00Z,28.4073,-96.7122,0.534,1111122 
TCOON,ioos:station:TCOON:031:1,2017-03-12T11:18:00Z,28.4073,-96.7122,0.581,1111122 
TCOON,ioos:station:TCOON:031:1,2017-03-12T12:18:00Z,28.4073,-96.7122,0.561,1111122 
TCOON,ioos:station:TCOON:031:1,2017-03-12T13:18:00Z,28.4073,-96.7122,0.474,1111122 
TCOON,ioos:station:TCOON:031:1,2017-03-12T14:18:00Z,28.4073,-96.7122,0.473,1111122 
TCOON,ioos:station:TCOON:031:1,2017-03-12T15:18:00Z,28.4073,-96.7122,0.511,1111122 
TCOON,ioos:station:TCOON:031:1,2017-03-12T16:18:00Z,28.4073,-96.7122,0.538,1111122 
TCOON,ioos:station:TCOON:031:1,2017-03-12T17:18:00Z,28.4073,-96.7122,0.571,1111122 
TCOON,ioos:station:TCOON:031:1,2017-03-12T18:18:00Z,28.4073,-96.7122,0.56,1111122 
TCOON,ioos:station:TCOON:031:1,2017-03-12T19:18:00Z,28.4073,-96.7122,0.572,1111122 
TCOON,ioos:station:TCOON:031:1,2017-03-12T20:18:00Z,28.4073,-96.7122,0.61,1111122 
TCOON,ioos:station:TCOON:031:1,2017-03-12T21:18:00Z,28.4073,-96.7122,0.596,1111122 
TCOON,ioos:station:TCOON:031:1,2017-03-12T22:18:00Z,28.4073,-96.7122,0.561,1111122 
TCOON,ioos:station:TCOON:031:1,2017-03-12T23:18:00Z,28.4073,-96.7122,0.57,1111122 
TCOON,ioos:station:TCOON:031:1,2017-03-13T00:18:00Z,28.4073,-96.7122,0.575,1111122 